Location: Sungai Bunut
(2.6333°N, 113.7333°E)
Time: 16:32:55
(UTC+00:00)

Altair - Pass Details

Date: 05 December 2023
Orbit: 1501 x 1682 km, 47.2° (Epoch: 24 February)

Event Time Altitude Azimuth Distance (km) Brightness Sun altitude
Rises 11:49:56 0° 272° (W) 4,656 11.1 -22.8°
Reaches altitude 10° 11:56:58 10° 235° (SW) 3,718 10.5 -24.4°
Maximum altitude 11:58:35 11° 225° (SW) 3,689 10.4 -24.8°
Drops below altitude 10° 12:00:12 10° 215° (SW) 3,741 10.3 -25.1°
Sets 12:07:32 0° 178° (S) 4,784 10.4 -26.8°
